User: anonymous   Login
Location: �clusier
(49.9361°N, 2.7869°E)
Time: 19:01:11
(UTC+00:00)
Language:

NOAA 16 DEB - Orbit

View from above orbital plane
View from above orbital plane
View from above satellite
View from above satellite

Ground track
Ground track

The orbit data is extracted from the following two-line orbital elements,

1 41343U 00055HL  22013.38773521  .00001156  00000-0  59343-3 0  9999
2 41343  98.6878  75.2985 0028321 258.8956 100.9034 14.17113656308326
Epoch (UTC): 13 January 2022 09:18:20
Eccentricity: 0.0028321
inclination: 98.6878°
perigee height: 815 km
apogee height: 855 km
right ascension of ascending node: 75.2985°
argument of perigee: 258.8956°
revolutions per day: 14.17113656
mean anomaly at epoch: 100.9034°
orbit number at epoch: 30832

The dashed part of the orbit path shows where the satellite is in the earth's shadow,  

DLR